Seattle Boeing, WA
on Saturday, November 10, 2012

Saturday
Previous Day Next Day
Daily Summary
 ActualAverage (KSEA)Record (KSEA)
Temperature
Mean Temperature °F 47°F  
Max Temperature 46°F 52°F 63°F (1997)
Min Temperature 30°F 41°F 30°F (1948)
Degree Days
Heating Degree Days 27 18  
Month to date heating degree days 173  
Since 1 July heating degree days 770  
Cooling Degree Days 0 0  
Month to date cooling degree days 0  
Year to date cooling degree days 189  
Moisture
Dew Point 27°F   
Average Humidity 70    
Maximum Humidity 89    
Minimum Humidity 39    
Precipitation
Precipitation 0.00 in 0.22 in 1.08 in (1962)
Month to date precipitation 2.04  
Year to date precipitation 27.61  
Snow
Snow 0.00 in in T in (1986)
Month to date snowfall  
Since 1 July snowfall  
Snow Depth in   
Wind
Wind Speed 4 mph   
Max Wind Speed 8 mph   
Max Gust Speed mph   
Visibility 10 miles   
Events     

Key: T is trace of precipitation, MM is missing value
Source: NWS Daily Summary
Time(PST)TemperatureDew PointHumidity Pressure Visibility Wind DirectionWind SpeedGust SpeedPrecipitationEvents Conditions
12:53 AM 32.0°F 28.9°F 88% 29.97 in 10.0 miles SSE 4.6 mph - N/A   Clear
1:53 AM 30.9°F 28.0°F 89% 29.99 in 10.0 miles SSE 4.6 mph - N/A   Clear
2:53 AM 30.9°F 28.0°F 89% 30.00 in 10.0 miles SE 4.6 mph - N/A   Clear
3:53 AM 30.9°F 28.0°F 89% 30.01 in 9.0 miles SE 5.8 mph - N/A   Clear
4:53 AM 30.9°F 28.0°F 89% 30.03 in 10.0 miles Calm Calm - N/A   Clear
5:53 AM 32.0°F 28.0°F 85% 30.04 in 10.0 miles SSE 4.6 mph - N/A   Overcast
6:53 AM 30.0°F 27.0°F 88% 30.05 in 10.0 miles SE 4.6 mph - N/A   Clear
7:53 AM 30.0°F 27.0°F 88% 30.08 in 10.0 miles SSE 3.5 mph - N/A   Mostly Cloudy
8:53 AM 34.0°F 30.0°F 85% 30.09 in 10.0 miles SE 3.5 mph - N/A   Partly Cloudy
9:53 AM 39.0°F 30.9°F 73% 30.09 in 10.0 miles Calm Calm - N/A   Clear
10:53 AM 42.1°F 30.0°F 62% 30.12 in 10.0 miles WNW 5.8 mph - N/A   Partly Cloudy
11:53 AM 44.1°F 28.9°F 55% 30.12 in 10.0 miles Variable 3.5 mph - N/A   Clear
12:53 PM 46.0°F 24.1°F 42% 30.14 in 10.0 miles NW 8.1 mph - N/A   Partly Cloudy
1:53 PM 46.0°F 21.9°F 39% 30.14 in 10.0 miles NW 5.8 mph - N/A   Clear
2:53 PM 46.0°F 21.9°F 39% 30.14 in 10.0 miles NNE 4.6 mph - N/A   Partly Cloudy
3:53 PM 45.0°F 21.0°F 39% 30.15 in 10.0 miles NNW 4.6 mph - N/A   Clear
4:53 PM 43.0°F 21.9°F 43% 30.17 in 10.0 miles Calm Calm - N/A   Clear
5:53 PM 39.9°F 23.0°F 51% 30.18 in 10.0 miles Calm Calm - N/A   Clear
6:53 PM 37.9°F 25.0°F 60% 30.19 in 10.0 miles Calm Calm - N/A   Clear
7:53 PM 35.6°F 26.6°F 70% 30.20 in 10.0 miles Calm Calm - N/A   Clear
8:53 PM 33.8°F 26.6°F 75% 30.20 in 10.0 miles SE 3.5 mph - N/A   Clear
9:53 PM 33.1°F 27.0°F 78% 30.22 in 10.0 miles Calm Calm - N/A   Clear
10:53 PM 32.0°F 27.0°F 82% 30.22 in 10.0 miles SSE 6.9 mph - N/A   Clear
11:53 PM 34.0°F 28.0°F 79% 30.23 in 10.0 miles SE 4.6 mph - N/A   Clear
Moon Phase
Nov. 10 Nov. 13 Nov. 20 Nov. 28 Dec. 06
Sunrise:07:07 AM (PST) Moon Rise:03:05 AM (PST)11/10
Sunset:04:38 PM (PST) Moon Set:02:39 PM (PST)11/10

Copyright © 2014 The Weather Underground, Inc.